Hyannis, MA

12:03 PM EDT on May 27, 2018 (GMT -0400)
Barnstable Municipal-Boardman-Polando Field

Weather History for KHYA - February, 2014

Change the Weather History Date:

Wednesday, February 19, 2014

  Actual Average Record
Temperature  
Mean Temperature 31 °F -  
Max Temperature 43 °F 38 °F 61 °F (1981)
Min Temperature 19 °F 23 °F -1 °F (1979)
Degree Days  
Heating Degree Days 34    
Moisture  
Dew Point 34 °F    
Average Humidity 90    
Maximum Humidity 100    
Minimum Humidity 70    
Precipitation  
Precipitation 0.40 in - - ()
Sea Level Pressure  
Sea Level Pressure 29.80 in    
Wind  
Wind Speed 9 mph (WSW)    
Max Wind Speed 15 mph    
Max Gust Speed 24 mph    
Visibility 5 miles    
Events Fog , Rain    
Averages and records for this station are not official NWS values.
T = Trace of Precipitation, MM = Missing Value Source: NWS Daily Summary

Daily Weather History Graph

Daily Weather History Graph

Search for Another Location

Airport or City:

Astronomy

Feb. 19, 2014 Rise Set
Actual Time 6:30 AM EST 5:19 PM EST
Civil Twilight 6:02 AM EST 5:47 PM EST
Nautical Twilight 5:30 AM EST 6:20 PM EST
Astronomical Twilight 4:58 AM EST 6:52 PM EST
Moon 10:14 PM EST (2/19) 8:30 AM EST (2/19)
Length of Visible Light 11h 45m
Length of Day
10h 48m
Waning Gibbous, 80% of the Moon is Illuminated
Feb 19
Waning Gibbous
Feb 22
Last Quarter
Mar 1
New
Mar 8
First Quarter
Mar 16
Full

Hourly Weather History & Observations

Time (EST) Temp. Windchill Dew Point Humidity Pressure Visibility Wind Dir Wind Speed Gust Speed Precip Events Conditions
12:56 AM 30.0 °F 19.5 °F 21.9 °F 72% 30.04 in 10.0 mi West 13.8 mph 20.7 mph N/A   Clear
1:56 AM 28.9 °F 21.9 °F 21.9 °F 75% 30.05 in 10.0 mi West 6.9 mph - N/A   Clear
2:56 AM 28.0 °F 19.3 °F 21.0 °F 75% 30.07 in 10.0 mi West 9.2 mph - N/A   Clear
3:56 AM 28.0 °F 20.8 °F 21.0 °F 75% 30.09 in 10.0 mi West 6.9 mph - N/A   Clear
4:56 AM 27.0 °F 21.6 °F 19.9 °F 75% 30.10 in 10.0 mi West 4.6 mph - N/A   Clear
5:56 AM 23.0 °F - 19.0 °F 85% 30.09 in 10.0 mi Calm Calm - N/A   Clear
6:56 AM 19.0 °F - 18.0 °F 96% 30.08 in 5.0 mi Calm Calm - N/A   Clear
7:56 AM 28.0 °F 21.7 °F 25.0 °F 88% 30.09 in 9.0 mi SSW 5.8 mph - N/A   Clear
8:56 AM 33.1 °F 25.5 °F 26.1 °F 75% 30.05 in 10.0 mi SSE 9.2 mph - N/A   Clear
9:56 AM 35.1 °F 27.4 °F 27.0 °F 72% 30.05 in 10.0 mi SSE 10.4 mph - N/A   Clear
10:56 AM 37.0 °F 30.4 °F 28.0 °F 70% 30.02 in 10.0 mi SE 9.2 mph - N/A   Clear
11:56 AM 37.0 °F 29.3 °F 28.9 °F 73% 29.94 in 10.0 mi SE 11.5 mph 24.2 mph N/A   Clear
12:56 PM 37.9 °F 30.9 °F 32.0 °F 79% 29.89 in 10.0 mi SE 10.4 mph 21.9 mph N/A   Scattered Clouds
1:56 PM 37.9 °F 30.9 °F 34.0 °F 86% 29.83 in 7.0 mi SE 10.4 mph 18.4 mph N/A   Overcast
2:56 PM 39.0 °F 31.4 °F 34.0 °F 82% 29.80 in 6.0 mi SE 12.7 mph 23.0 mph 0.00 in Rain Light Rain
3:10 PM 37.9 °F 30.9 °F 35.1 °F 89% 29.78 in 2.0 mi SE 10.4 mph 23.0 mph 0.03 in Rain Rain
3:38 PM 39.0 °F 33.4 °F 37.0 °F 93% 29.74 in 1.2 mi ESE 8.1 mph 17.3 mph 0.13 in Rain Heavy Rain
3:56 PM 39.9 °F 33.4 °F 37.9 °F 93% 29.71 in 2.0 mi ESE 10.4 mph - 0.16 in Rain Light Rain
3:58 PM 39.9 °F 33.9 °F 37.9 °F 93% 29.70 in 3.0 mi SE 9.2 mph - 0.00 in Rain Light Rain
4:21 PM 41.0 °F 35.2 °F 39.9 °F 96% 29.69 in 4.0 mi SSE 9.2 mph 17.3 mph 0.00 in   Overcast
4:49 PM 43.0 °F 37.7 °F 41.0 °F 93% 29.68 in 2.0 mi South 9.2 mph 21.9 mph 0.03 in Rain Rain
4:56 PM 43.0 °F 36.4 °F 41.0 °F 93% 29.69 in 3.0 mi SSW 12.7 mph 23.0 mph 0.04 in Rain Light Rain
5:03 PM 42.1 °F 34.5 °F 41.0 °F 96% 29.68 in 2.0 mi South 15.0 mph 23.0 mph 0.02 in Rain Rain
5:43 PM 42.1 °F 35.7 °F 39.9 °F 92% 29.66 in 2.0 mi South 11.5 mph 18.4 mph 0.07 in Rain Rain
5:56 PM 42.1 °F 35.7 °F 41.0 °F 96% 29.66 in 2.0 mi SSW 11.5 mph 18.4 mph 0.09 in Rain Light Rain
6:56 PM 41.0 °F 33.9 °F 39.0 °F 93% 29.65 in 2.0 mi SW 12.7 mph - 0.01 in   Overcast
7:03 PM 39.9 °F 33.4 °F 39.0 °F 97% 29.65 in 0.2 mi WSW 10.4 mph - N/A Fog Fog
7:41 PM 42.1 °F 36.6 °F 42.1 °F 100% 29.64 in 1.0 mi West 9.2 mph - N/A   Overcast
7:54 PM 42.8 °F 37.5 °F 42.8 °F 100% 29.65 in 2.5 mi West 9.2 mph 18.4 mph N/A   Overcast
7:56 PM 43.0 °F 37.7 °F 42.1 °F 97% 29.65 in 3.0 mi West 9.2 mph - N/A   Overcast
8:13 PM 42.1 °F 37.7 °F 41.0 °F 96% 29.67 in 1.8 mi NW 6.9 mph - N/A   Overcast
8:23 PM 39.0 °F 33.4 °F 39.0 °F 100% 29.68 in 0.5 mi NW 8.1 mph - N/A Fog Fog
8:42 PM 39.0 °F 32.3 °F 37.9 °F 96% 29.71 in 1.5 mi WNW 10.4 mph - N/A   Overcast
8:51 PM 39.2 °F 33.0 °F 37.4 °F 93% 29.71 in 3.0 mi West 9.2 mph - N/A   Overcast
8:56 PM 39.0 °F 31.8 °F 37.9 °F 96% 29.72 in 2.5 mi West 11.5 mph - N/A   Overcast
9:08 PM 37.9 °F 32.1 °F 37.0 °F 97% 29.71 in 1.8 mi WNW 8.1 mph - N/A   Overcast
9:31 PM 37.0 °F 31.0 °F 36.0 °F 96% 29.72 in 2.5 mi West 8.1 mph - N/A   Overcast
9:38 PM 37.0 °F 32.4 °F 36.0 °F 96% 29.72 in 4.0 mi West 5.8 mph - N/A   Overcast
9:56 PM 37.0 °F 31.6 °F 37.0 °F 100% 29.72 in 4.0 mi NNW 6.9 mph - N/A   Overcast
10:15 PM 36.0 °F 29.6 °F 35.1 °F 97% 29.73 in 4.0 mi WNW 8.1 mph - 0.00 in Rain Light Rain
10:25 PM 36.0 °F 29.6 °F 35.1 °F 97% 29.73 in 3.0 mi WNW 8.1 mph - 0.02 in Rain Rain
10:32 PM 36.0 °F 30.3 °F 35.1 °F 97% 29.74 in 2.5 mi WNW 6.9 mph - 0.04 in Rain Rain
10:45 PM 36.0 °F 28.5 °F 34.0 °F 93% 29.75 in 4.0 mi West 10.4 mph - 0.05 in Rain Light Rain
10:56 PM 36.0 °F 29.0 °F 35.1 °F 97% 29.77 in 5.0 mi West 9.2 mph - 0.05 in Rain Light Rain
11:09 PM 36.0 °F 33.3 °F 35.1 °F 97% 29.75 in 5.0 mi Variable 3.5 mph - 0.00 in Rain Light Rain
11:25 PM 36.0 °F 31.1 °F 34.0 °F 93% 29.78 in 2.5 mi WNW 5.8 mph - 0.04 in Rain Rain
11:33 PM 35.1 °F 30.1 °F 34.0 °F 96% 29.78 in 3.0 mi WNW 5.8 mph - 0.05 in Rain Light Rain
11:43 PM 35.1 °F 29.3 °F 34.0 °F 96% 29.79 in 6.0 mi WNW 6.9 mph - 0.05 in Rain Light Rain
11:54 PM 35.6 °F 29.9 °F 33.8 °F 93% 29.79 in 8.0 mi WNW 6.9 mph - 0.05 in Rain Light Rain
11:56 PM 35.1 °F 29.3 °F 34.0 °F 96% 29.81 in 8.0 mi WNW 6.9 mph - 0.05 in   Overcast